EW2546 Weather Reports


Display with metric or nautical units.
time (UTC)temp
F
wind
direction
speed
MPH
gust
MPH
rain 1hr
in
rain 24hr
in
rain mn
in
humidity
%
barometer
mb
20260506204546 54 141 0.0 5.0 0.08 0.24 0.24 93 1006.1
20260506204025 54 0 0.0 9.0 0.08 0.24 0.24 93 1006.1
20260506203524 54 205 0.0 9.0 0.07 0.23 0.23 93 1006.1
20260506203045 54 0 1.0 9.0 0.08 0.23 0.23 93 1006.0
20260506202525 54 0 0.0 6.0 0.09 0.23 0.23 94 1006.4
20260506202024 54 0 0.0 6.0 0.13 0.23 0.23 93 1006.2
20260506201550 54 0 0.0 6.0 0.17 0.23 0.23 93 1006.1
20260506201026 54 202 0.0 5.0 0.17 0.22 0.22 93 1006.2
20260506200524 54 0 0.0 6.0 0.17 0.21 0.21 93 1006.3
20260506200036 54 0 0.0 6.0 0.17 0.20 0.20 93 1006.5
20260506195525 54 0 0.0 6.0 0.16 0.19 0.19 93 1006.6
20260506195025 54 0 0.0 3.0 0.15 0.17 0.17 93 1006.7
20260506194546 54 160 0.0 3.0 0.15 0.16 0.16 93 1006.7
20260506194026 54 0 0.0 3.0 0.16 0.16 0.16 93 1006.5
20260506193524 53 0 0.0 4.0 0.16 0.16 0.16 93 1006.5
20260506193040 54 0 0.0 4.0 0.15 0.15 0.15 92 1006.7
20260506192526 54 0 0.0 3.0 0.13 0.13 0.13 92 1006.9
20260506192024 54 0 0.0 1.0 0.09 0.09 0.09 92 1007.2
20260506191545 54 0 0.0 3.0 0.06 0.06 0.06 91 1007.3
20260506191029 54 0 0.0 3.0 0.04 0.04 0.04 91 1007.2
20260506190529 54 0 0.0 3.0 0.04 0.04 0.04 91 1006.8
20260506190037 54 0 0.0 3.0 0.03 0.03 0.03 90 1006.9
20260506185528 54 0 0.0 6.0 0.03 0.03 0.03 89 1006.9
20260506185024 54 0 0.0 7.0 0.02 0.02 0.02 89 1006.9
20260506184536 54 172 1.0 7.0 0.01 0.01 0.01 87 1006.8
20260506184025 55 164 0.0 8.0 0.00 0.00 0.00 86 1006.8
20260506183527 55 0 2.0 12.0 0.00 0.00 0.00 84 1006.8
20260506183056 56 159 0.0 13.0 0.00 0.00 0.00 82 1006.7
20260506182524 56 151 3.0 13.0 0.00 0.00 0.00 82 1006.8
20260506182024 56 0 1.0 10.0 0.00 0.00 0.00 81 1006.8
20260506181539 57 222 2.0 10.0 0.00 0.00 0.00 80 1006.8
20260506181025 57 0 0.0 10.0 0.00 0.00 0.00 80 1006.9
20260506180528 57 191 1.0 10.0 0.00 0.00 0.00 80 1006.8
20260506180044 57 142 0.0 6.0 0.00 0.00 0.00 80 1006.7
20260506175525 57 0 0.0 6.0 0.00 0.00 0.00 79 1006.7
20260506175024 58 0 1.0 6.0 0.00 0.00 0.00 80 1006.9
20260506174542 58 151 0.0 6.0 0.00 0.00 0.00 80 1007.0
20260506174024 58 0 0.0 8.0 0.00 0.00 0.00 79 1007.0
20260506173524 58 0 2.0 8.0 0.00 0.00 0.00 79 1007.1
20260506173038 58 0 0.0 8.0 0.00 0.00 0.00 79 1007.3
20260506172523 58 0 0.0 8.0 0.00 0.00 0.00 78 1007.3
20260506172023 59 0 0.0 6.0 0.00 0.00 0.00 78 1007.4
20260506171539 59 173 0.0 6.0 0.00 0.00 0.00 78 1007.5
20260506171028 59 0 0.0 9.0 0.00 0.00 0.00 78 1007.6
20260506170526 59 0 0.0 9.0 0.00 0.00 0.00 78 1007.7
20260506165526 60 173 0.0 6.0 0.00 0.00 0.00 77 1007.7
20260506165026 60 0 1.0 6.0 0.00 0.00 0.00 78 1007.8
20260506164539 60 174 0.0 7.0 0.00 0.00 0.00 77 1008.0
20260506164027 60 174 1.0 8.0 0.00 0.00 0.00 78 1008.0
20260506163525 59 0 0.0 8.0 0.00 0.00 0.00 78 1008.2
20260506163044 59 229 2.0 8.0 0.00 0.00 0.00 78 1008.2
20260506162526 60 0 0.0 8.0 0.00 0.00 0.00 78 1008.4
20260506162028 59 148 0.0 8.0 0.00 0.00 0.00 78 1008.5
20260506161541 59 142 0.0 7.0 0.00 0.00 0.00 79 1008.6
20260506161023 59 0 0.0 6.0 0.00 0.00 0.00 79 1008.5
20260506160525 59 0 0.0 6.0 0.00 0.00 0.00 79 1008.8
20260506160040 59 0 1.0 6.0 0.00 0.00 0.00 79 1008.8
20260506155527 59 0 0.0 9.0 0.00 0.00 0.00 79 1008.9
20260506155026 59 155 2.0 9.0 0.00 0.00 0.00 79 1008.8
20260506154541 59 0 1.0 7.0 0.00 0.00 0.00 79 1008.9
20260506154023 59 0 0.0 7.0 0.00 0.00 0.00 79 1009.0
20260506153526 59 0 0.0 5.0 0.00 0.00 0.00 80 1009.2
20260506153040 59 0 0.0 5.0 0.00 0.00 0.00 79 1009.1
20260506152525 59 0 0.0 7.0 0.00 0.00 0.00 78 1009.2
20260506152028 59 0 0.0 7.0 0.00 0.00 0.00 78 1008.9
20260506151544 59 130 0.0 6.0 0.00 0.00 0.00 79 1008.9
20260506151025 59 134 0.0 4.0 0.00 0.00 0.00 78 1008.9
20260506150525 59 0 1.0 4.0 0.00 0.00 0.00 78 1008.9
20260506150038 60 0 0.0 4.0 0.00 0.00 0.00 78 1008.8
20260506145526 60 145 0.0 4.0 0.00 0.00 0.00 78 1008.8
20260506145026 60 138 0.0 4.0 0.00 0.00 0.00 77 1008.7
20260506144548 60 0 1.0 4.0 0.00 0.00 0.00 78 1008.5
20260506144028 60 0 0.0 4.0 0.00 0.00 0.00 77 1008.4
20260506143526 60 0 0.0 5.0 0.00 0.00 0.00 77 1008.3
20260506143042 60 0 0.0 5.0 0.00 0.00 0.00 77 1008.5
20260506142525 60 0 0.0 8.0 0.00 0.00 0.00 77 1008.5
20260506142029 60 0 0.0 8.0 0.00 0.00 0.00 78 1008.6
20260506141539 59 131 2.0 7.0 0.00 0.00 0.00 78 1008.8
20260506141029 60 196 0.0 4.0 0.00 0.00 0.00 78 1009.1
20260506140530 60 0 0.0 8.0 0.00 0.00 0.00 78 1009.1
20260506140044 60 136 0.0 8.0 0.00 0.00 0.00 77 1009.3
20260506135525 60 149 1.0 8.0 0.00 0.00 0.00 77 1009.3
20260506135026 60 0 0.0 1.0 0.00 0.00 0.00 78 1009.2
20260506134539 60 0 0.0 1.0 0.00 0.00 0.00 79 1009.2
20260506134026 59 0 0.0 0.0 0.00 0.00 0.00 78 1009.2
20260506133528 59 0 0.0 4.0 0.00 0.00 0.00 79 1009.2
20260506133045 59 0 0.0 4.0 0.00 0.00 0.00 79 1009.1
20260506132526 59 0 0.0 4.0 0.00 0.00 0.00 79 1008.9
20260506132030 59 0 0.0 3.0 0.00 0.00 0.00 79 1009.0
20260506131536 59 0 0.0 1.0 0.00 0.00 0.00 79 1009.0
20260506131026 58 0 0.0 1.0 0.00 0.00 0.00 79 1008.8
20260506130526 58 0 0.0 3.0 0.00 0.00 0.00 79 1008.9
20260506130032 58 0 0.0 3.0 0.00 0.00 0.00 79 1009.0
20260506125525 58 0 0.0 1.0 0.00 0.00 0.00 80 1008.9
20260506125025 57 0 0.0 5.0 0.00 0.00 0.00 80 1009.0
20260506124541 57 0 0.0 5.0 0.00 0.00 0.00 81 1009.0
20260506124025 56 0 0.0 3.0 0.00 0.00 0.00 83 1009.2
20260506123526 56 0 0.0 3.0 0.00 0.00 0.00 82 1009.3
20260506123039 55 0 0.0 3.0 0.00 0.00 0.00 82 1009.2
20260506122526 55 0 0.0 0.0 0.00 0.00 0.00 84 1009.4
20260506122026 54 0 0.0 0.0 0.00 0.00 0.00 83 1009.4
20260506121539 54 0 0.0 0.0 0.00 0.00 0.00 84 1009.4
20260506121026 54 0 0.0 0.0 0.00 0.00 0.00 83 1009.7
20260506120526 54 0 0.0 0.0 0.00 0.00 0.00 84 1009.5
20260506120042 54 0 0.0 0.0 0.00 0.00 0.00 84 1009.5
20260506115526 54 0 0.0 0.0 0.00 0.00 0.00 84 1009.6
20260506115026 53 0 0.0 0.0 0.00 0.00 0.00 85 1009.6
20260506114535 53 0 0.0 0.0 0.00 0.00 0.00 84 1009.8
20260506114025 53 0 0.0 0.0 0.00 0.00 0.00 85 1009.8
20260506113526 53 0 0.0 0.0 0.00 0.00 0.00 85 1010.1
20260506113041 53 0 0.0 0.0 0.00 0.00 0.00 85 1009.9
20260506112529 53 0 0.0 0.0 0.00 0.00 0.00 85 1009.8
20260506112025 52 0 0.0 0.0 0.00 0.00 0.00 85 1010.1
20260506111539 52 0 0.0 0.0 0.00 0.00 0.00 86 1010.2
20260506111025 52 0 0.0 0.0 0.00 0.00 0.00 86 1010.1
20260506110526 52 0 0.0 0.0 0.00 0.00 0.00 86 1010.0
20260506110038 52 0 0.0 0.0 0.00 0.00 0.00 86 1010.1
20260506105526 52 0 0.0 0.0 0.00 0.00 0.00 86 1009.9
20260506105023 52 0 0.0 0.0 0.00 0.00 0.00 86 1009.9
20260506104539 52 0 0.0 0.0 0.00 0.00 0.00 86 1009.9
20260506104026 52 0 0.0 0.0 0.00 0.00 0.00 86 1010.0
20260506103526 52 0 0.0 0.0 0.00 0.00 0.00 86 1009.7
20260506103046 51 0 0.0 0.0 0.00 0.00 0.00 87 1009.7
20260506102526 51 0 0.0 0.0 0.00 0.00 0.00 87 1009.5
20260506102025 51 0 0.0 0.0 0.00 0.00 0.00 87 1009.5
20260506101542 51 0 0.0 0.0 0.00 0.00 0.00 87 1009.5
20260506101029 51 0 0.0 0.0 0.00 0.00 0.00 88 1009.5
20260506100529 51 0 0.0 0.0 0.00 0.00 0.00 88 1009.5
20260506100039 51 0 0.0 0.0 0.00 0.00 0.00 87 1009.5
20260506095525 51 0 0.0 0.0 0.00 0.00 0.00 87 1009.7
20260506095026 51 0 0.0 0.0 0.00 0.00 0.00 87 1009.7
20260506094540 51 0 0.0 0.0 0.00 0.00 0.00 87 1009.6
20260506094026 51 0 0.0 0.0 0.00 0.00 0.00 87 1009.6
20260506093526 51 0 0.0 0.0 0.00 0.00 0.00 87 1009.7
20260506093038 51 0 0.0 0.0 0.00 0.00 0.00 87 1009.7
20260506092526 51 0 0.0 0.0 0.00 0.00 0.00 87 1009.7
20260506092026 51 0 0.0 0.0 0.00 0.00 0.00 87 1009.6
20260506091537 51 0 0.0 0.0 0.00 0.00 0.00 86 1009.5
20260506091026 51 0 0.0 0.0 0.00 0.00 0.00 86 1009.5
20260506090525 51 0 0.0 0.0 0.00 0.00 0.00 86 1009.4
20260506090045 52 0 0.0 0.0 0.00 0.00 0.00 85 1009.3
20260506085525 52 0 0.0 0.0 0.00 0.00 0.00 85 1009.2
20260506085026 52 0 0.0 0.0 0.00 0.00 0.00 85 1009.2
20260506084558 52 0 0.0 0.0 0.00 0.00 0.00 85 1009.1
20260506084029 52 0 0.0 0.0 0.00 0.00 0.00 85 1009.1
20260506083526 52 0 0.0 0.0 0.00 0.00 0.00 85 1009.0
20260506083041 52 0 0.0 0.0 0.00 0.00 0.00 84 1008.9
20260506082526 52 0 0.0 1.0 0.00 0.00 0.00 84 1009.0
20260506082027 52 0 0.0 1.0 0.00 0.00 0.00 83 1009.0
20260506081542 52 0 0.0 1.0 0.00 0.00 0.00 83 1008.9
20260506081026 52 0 0.0 2.0 0.00 0.00 0.00 84 1008.9
20260506080526 52 0 0.0 2.0 0.00 0.00 0.00 84 1009.0
20260506073526 52 0 0.0 0.0 0.00 0.00 0.00 84 1009.0
20260506073051 52 0 0.0 0.0 0.00 0.00 0.00 84 1008.8
20260506072525 52 0 0.0 0.0 0.00 0.00 0.00 84 1008.8
20260506072027 52 0 0.0 0.0 0.00 0.00 0.00 84 1008.9
20260506071543 52 0 0.0 2.0 0.00 0.00 0.00 84 1008.6
20260506071029 52 0 0.0 2.0 0.00 0.00 0.00 84 1008.6
20260506070526 52 0 0.0 2.0 0.00 0.00 0.00 85 1008.5
20260506062023 51 0 0.0 0.0 0.00 0.00 0.00 85 1008.4
20260506061547 51 0 0.0 0.0 0.00 0.00 0.00 85 1008.1
20260506061026 51 0 0.0 0.0 0.00 0.00 0.00 85 1008.2
20260506060532 51 0 0.0 0.0 0.00 0.00 0.00 85 1008.4
20260506051025 52 0 0.0 0.0 0.00 0.00 0.00 83 1008.5
20260506050529 52 0 0.0 0.0 0.00 0.00 0.00 82 1008.5
20260506045028 53 0 0.0 0.0 0.00 0.00 0.00 82 1008.3
20260506044545 53 0 0.0 0.0 0.00 0.00 0.00 81 1008.2
20260506044026 53 0 0.0 0.0 0.00 0.00 0.00 81 1008.3
20260506043522 53 0 0.0 1.0 0.00 0.00 0.00 81 1008.3
20260506043042 53 0 0.0 1.0 0.00 0.00 0.00 81 1008.5
20260506042527 53 0 0.0 0.0 0.00 0.00 0.00 80 1008.4
20260506042026 53 0 0.0 0.0 0.00 0.00 0.00 80 1008.4
20260506041538 54 0 0.0 0.0 0.00 0.00 0.00 80 1008.5
20260506041026 54 0 0.0 0.0 0.00 0.00 0.00 79 1008.5
20260506040526 54 0 0.0 0.0 0.00 0.00 0.00 79 1008.3
20260506040043 54 0 0.0 0.0 0.00 0.00 0.00 79 1008.1
20260506035527 54 0 0.0 0.0 0.00 0.00 0.00 79 1008.0
20260506035028 54 0 0.0 0.0 0.00 0.00 0.00 78 1008.0
20260506034541 54 0 0.0 1.0 0.00 0.00 0.00 78 1008.0
20260506034027 55 0 0.0 1.0 0.00 0.00 0.00 78 1007.9
20260506033525 55 0 0.0 1.0 0.00 0.00 0.00 78 1007.8
20260506033038 55 0 0.0 1.0 0.00 0.00 0.00 77 1007.8
20260506032525 55 0 0.0 0.0 0.00 0.00 0.00 77 1007.8
20260506032023 56 0 0.0 0.0 0.00 0.00 0.00 78 1007.8
20260506031545 56 0 0.0 0.0 0.00 0.00 0.00 78 1007.9
20260506031025 56 0 0.0 0.0 0.00 0.00 0.00 77 1008.0
20260506030524 56 0 0.0 1.0 0.00 0.00 0.00 77 1007.8
20260506030042 57 0 0.0 1.0 0.00 0.00 0.00 76 1008.0
20260506025526 57 0 0.0 1.0 0.00 0.00 0.00 76 1008.0
20260506025025 57 0 0.0 1.0 0.00 0.00 0.00 76 1008.0
20260506024551 58 0 0.0 1.0 0.00 0.00 0.00 76 1008.1
20260506024026 58 0 0.0 0.0 0.00 0.00 0.00 75 1008.3
20260506023527 58 0 0.0 0.0 0.00 0.00 0.00 76 1008.1
20260506023036 59 0 0.0 0.0 0.00 0.00 0.00 76 1008.3
20260506022526 59 0 0.0 0.0 0.00 0.00 0.00 74 1008.2
20260506022025 59 0 0.0 1.0 0.00 0.00 0.00 75 1008.2
20260506021538 59 0 0.0 1.0 0.00 0.00 0.00 75 1008.1
20260506021025 59 0 0.0 0.0 0.00 0.00 0.00 74 1008.1
20260506020525 59 0 0.0 0.0 0.00 0.00 0.00 75 1008.1
20260506020038 59 0 0.0 0.0 0.00 0.00 0.00 74 1008.1
20260506015529 59 0 0.0 0.0 0.00 0.00 0.00 75 1008.3
20260506015025 59 0 0.0 0.0 0.00 0.00 0.00 74 1008.2
20260506014542 59 0 0.0 0.0 0.00 0.00 0.00 74 1008.2
20260506014028 60 0 0.0 0.0 0.00 0.00 0.00 75 1008.1
20260506013524 60 0 0.0 0.0 0.00 0.00 0.00 74 1008.1
20260506013047 60 0 0.0 0.0 0.00 0.00 0.00 74 1008.3
20260506012526 60 0 0.0 0.0 0.00 0.00 0.00 71 1008.3
20260506012024 61 0 0.0 0.0 0.00 0.00 0.00 70 1008.2
20260506011539 61 0 0.0 0.0 0.00 0.00 0.00 70 1008.2
20260506011027 61 0 0.0 0.0 0.00 0.00 0.00 70 1008.3
20260506010526 61 0 0.0 0.0 0.00 0.00 0.00 69 1008.1
20260506010038 61 0 0.0 0.0 0.00 0.00 0.00 70 1008.2
20260506005525 61 0 0.0 4.0 0.00 0.00 0.00 69 1008.0
20260506005025 61 0 0.0 4.0 0.00 0.00 0.00 69 1007.9
20260506004536 61 0 0.0 4.0 0.00 0.00 0.00 69 1007.8
20260506004025 62 0 0.0 2.0 0.00 0.00 0.00 69 1007.9
20260506003525 62 0 0.0 3.0 0.00 0.00 0.00 71 1007.6
20260506003035 62 0 0.0 3.0 0.00 0.00 0.00 71 1007.6
20260506002524 62 0 0.0 3.0 0.00 0.00 0.00 75 1007.3
20260506002025 62 0 0.0 0.0 0.00 0.00 0.00 74 1006.8
20260506001543 62 0 0.0 0.0 0.00 0.00 0.00 74 1006.5
20260506001025 63 0 0.0 0.0 0.00 0.00 0.00 73 1006.5
20260506000527 63 0 0.0 0.0 0.00 0.00 0.00 72 1006.0
20260506000042 63 0 0.0 0.0 0.00 0.00 0.00 70 1005.9
20260505235528 64 0 0.0 0.0 0.00 0.00 0.00 68 1005.9
20260505235026 64 0 0.0 0.0 0.00 0.00 0.00 67 1006.5
20260505234538 64 0 0.0 0.0 0.00 0.00 0.00 67 1006.5
20260505234026 64 0 0.0 0.0 0.00 0.00 0.00 66 1006.9
20260505233525 64 0 0.0 0.0 0.00 0.00 0.00 65 1006.8
20260505233038 65 0 0.0 2.0 0.00 0.00 0.00 64 1006.7
20260505232525 65 0 0.0 3.0 0.00 0.00 0.00 63 1006.7
20260505232033 65 0 0.0 10.0 0.00 0.00 0.00 62 1006.9
20260505231544 65 0 0.0 10.0 0.00 0.00 0.00 61 1006.9
20260505231024 65 280 1.0 10.0 0.00 0.00 0.00 60 1006.8
20260505230524 64 195 2.0 12.0 0.00 0.00 0.00 60 1006.7
20260505230042 64 239 3.0 12.0 0.00 0.00 0.00 61 1006.5
20260505225525 64 0 2.0 8.0 0.00 0.00 0.00 60 1005.1
20260505225025 64 180 0.0 8.0 0.00 0.00 0.00 61 1004.7
20260505224540 64 160 0.0 8.0 0.00 0.00 0.00 60 1004.6
20260505224025 64 0 3.0 7.0 0.00 0.00 0.00 60 1004.4
20260505223525 64 139 1.0 11.0 0.00 0.00 0.00 60 1004.4
20260505223039 65 0 2.0 18.0 0.00 0.00 0.00 59 1004.3
20260505222524 65 199 3.0 18.0 0.00 0.00 0.00 58 1004.4
20260505222026 65 172 5.0 18.0 0.00 0.00 0.00 57 1004.3
20260505221540 66 181 5.0 16.0 0.00 0.00 0.00 57 1004.2
20260505221025 66 274 6.0 16.0 0.00 0.00 0.00 57 1004.3
20260505220526 66 192 5.0 18.0 0.00 0.00 0.00 57 1004.2
20260505220041 66 221 7.0 18.0 0.00 0.00 0.00 56 1004.0
20260505215526 67 155 5.0 17.0 0.00 0.00 0.00 55 1004.0
20260505215025 67 216 5.0 17.0 0.00 0.00 0.00 55 1004.1
20260505214559 67 249 6.0 17.0 0.00 0.00 0.00 55 1004.0
20260505214025 67 149 3.0 20.0 0.00 0.00 0.00 56 1004.1
20260505213524 67 161 6.0 20.0 0.00 0.00 0.00 56 1004.0
20260505213035 67 129 7.0 20.0 0.00 0.00 0.00 55 1004.0
20260505212525 67 268 2.0 12.0 0.00 0.00 0.00 56 1003.9
20260505212029 68 139 3.0 16.0 0.00 0.00 0.00 55 1004.0
20260505211541 68 232 4.0 16.0 0.00 0.00 0.00 55 1004.0
20260505211025 69 155 4.0 12.0 0.00 0.00 0.00 53 1004.0
20260505210524 69 205 4.0 12.0 0.00 0.00 0.00 53 1003.7
20260505210042 69 168 5.0 12.0 0.00 0.00 0.00 53 1003.7
20260505205524 70 137 4.0 14.0 0.00 0.00 0.00 53 1003.8
20260505205025 69 151 5.0 15.0 0.00 0.00 0.00 54 1003.8